Date_Time,Julian_Date,Latitude,Longitude,Instrument_Depth,U,V,Speed,Direction
(yyyy-mm-dd hh:mn:ss UTC),(JD),(+ deg. North),(+ deg. East),(m),(cm/s),(cm/s),(cm/s),(deg True)
1980-10-20 21:30:00 UTC,2444533.395833,27.9056,-93.7647,0970,3.33,-15.65,16.0000,168.0000
1980-10-20 21:50:00 UTC,2444533.409722,27.9056,-93.7647,0970,1.56,-9.88,10.0000,171.0000
1980-10-20 22:10:00 UTC,2444533.423611,27.9056,-93.7647,0970,1.22,-9.93,10.0000,173.0000
1980-10-20 22:30:00 UTC,2444533.437500,27.9056,-93.7647,0970,-0.31,-8.99,9.0000,182.0000
1980-10-20 22:50:00 UTC,2444533.451389,27.9056,-93.7647,0970,0.61,-4.96,5.0000,173.0000
1980-10-20 23:10:00 UTC,2444533.465278,27.9056,-93.7647,0970,1.10,-6.91,7.0000,171.0000
1980-10-20 23:30:00 UTC,2444533.479167,27.9056,-93.7647,0970,1.55,-5.80,6.0000,165.0000
1980-10-20 23:50:00 UTC,2444533.493056,27.9056,-93.7647,0970,1.17,-3.83,4.0000,163.0000
1980-10-21 00:10:00 UTC,2444533.506944,27.9056,-93.7647,0970,0.97,-3.88,4.0000,166.0000
1980-10-21 00:30:00 UTC,2444533.520833,27.9056,-93.7647,0970,0.78,-2.90,3.0000,165.0000
1980-10-21 00:50:00 UTC,2444533.534722,27.9056,-93.7647,0970,0.62,-2.93,3.0000,168.0000
1980-10-21 01:10:00 UTC,2444533.548611,27.9056,-93.7647,0970,0.00,-0.00,0.0000,158.0000
1980-10-21 01:30:00 UTC,2444533.562500,27.9056,-93.7647,0970,0.00,-0.00,0.0000,145.0000
1980-10-21 01:50:00 UTC,2444533.576389,27.9056,-93.7647,0970,0.00,-0.00,0.0000,161.0000
1980-10-21 02:10:00 UTC,2444533.590278,27.9056,-93.7647,0970,0.00,-0.00,0.0000,155.0000
1980-10-21 02:30:00 UTC,2444533.604167,27.9056,-93.7647,0970,0.00,-0.00,0.0000,151.0000
1980-10-21 02:50:00 UTC,2444533.618056,27.9056,-93.7647,0970,0.00,-0.00,0.0000,158.0000
1980-10-21 03:10:00 UTC,2444533.631944,27.9056,-93.7647,0970,0.00,-0.00,0.0000,158.0000
1980-10-21 03:30:00 UTC,2444533.645833,27.9056,-93.7647,0970,0.00,-0.00,0.0000,148.0000
1980-10-21 03:50:00 UTC,2444533.659722,27.9056,-93.7647,0970,0.00,-0.00,0.0000,175.0000
1980-10-21 04:10:00 UTC,2444533.673611,27.9056,-93.7647,0970,0.00,-0.00,0.0000,173.0000
1980-10-21 04:30:00 UTC,2444533.687500,27.9056,-93.7647,0970,0.00,-0.00,0.0000,161.0000
1980-10-21 04:50:00 UTC,2444533.701389,27.9056,-93.7647,0970,0.00,0.00,0.0000,66.0000
1980-10-21 05:10:00 UTC,2444533.715278,27.9056,-93.7647,0970,-0.83,-3.91,4.0000,192.0000
1980-10-21 05:30:00 UTC,2444533.729167,27.9056,-93.7647,0970,-1.25,-5.87,6.0000,192.0000
1980-10-21 05:50:00 UTC,2444533.743056,27.9056,-93.7647,0970,-2.15,-5.60,6.0000,201.0000
1980-10-21 06:10:00 UTC,2444533.756944,27.9056,-93.7647,0970,-1.79,-4.67,5.0000,201.0000
1980-10-21 06:30:00 UTC,2444533.770833,27.9056,-93.7647,0970,-1.71,-4.70,5.0000,200.0000
1980-10-21 06:50:00 UTC,2444533.784722,27.9056,-93.7647,0970,-0.52,-2.95,3.0000,190.0000
1980-10-21 07:10:00 UTC,2444533.798611,27.9056,-93.7647,0970,-0.69,-3.94,4.0000,190.0000
1980-10-21 07:30:00 UTC,2444533.812500,27.9056,-93.7647,0970,-1.12,-4.87,5.0000,193.0000
1980-10-21 07:50:00 UTC,2444533.826389,27.9056,-93.7647,0970,-1.10,-3.85,4.0000,196.0000
1980-10-21 08:10:00 UTC,2444533.840278,27.9056,-93.7647,0970,-1.10,-3.85,4.0000,196.0000
1980-10-21 08:30:00 UTC,2444533.854167,27.9056,-93.7647,0970,-0.97,-3.88,4.0000,194.0000
1980-10-21 08:50:00 UTC,2444533.868056,27.9056,-93.7647,0970,-1.08,-2.80,3.0000,201.0000
1980-10-21 09:10:00 UTC,2444533.881944,27.9056,-93.7647,0970,-1.12,-1.66,2.0000,214.0000
1980-10-21 09:30:00 UTC,2444533.895833,27.9056,-93.7647,0970,-1.12,-1.66,2.0000,214.0000
1980-10-21 09:50:00 UTC,2444533.909722,27.9056,-93.7647,0970,-1.12,-1.66,2.0000,214.0000
1980-10-21 10:10:00 UTC,2444533.923611,27.9056,-93.7647,0970,-2.41,-3.19,4.0000,217.0000
1980-10-21 10:30:00 UTC,2444533.937500,27.9056,-93.7647,0970,-1.50,-2.60,3.0000,210.0000
1980-10-21 10:50:00 UTC,2444533.951389,27.9056,-93.7647,0970,-1.17,-2.76,3.0000,203.0000
1980-10-21 11:10:00 UTC,2444533.965278,27.9056,-93.7647,0970,-1.63,-4.73,5.0000,199.0000
1980-10-21 11:30:00 UTC,2444533.979167,27.9056,-93.7647,0970,-1.95,-5.67,6.0000,199.0000
1980-10-21 11:50:00 UTC,2444533.993056,27.9056,-93.7647,0970,-1.37,-3.76,4.0000,200.0000
1980-10-21 12:10:00 UTC,2444534.006944,27.9056,-93.7647,0970,-1.56,-3.68,4.0000,203.0000
1980-10-21 12:30:00 UTC,2444534.020833,27.9056,-93.7647,0970,-3.21,-3.83,5.0000,220.0000
1980-10-21 12:50:00 UTC,2444534.034722,27.9056,-93.7647,0970,-0.00,-0.00,0.0000,215.0000
1980-10-21 13:10:00 UTC,2444534.048611,27.9056,-93.7647,0970,-1.03,-1.71,2.0000,211.0000
1980-10-21 13:30:00 UTC,2444534.062500,27.9056,-93.7647,0970,-1.09,-1.68,2.0000,213.0000
1980-10-21 13:50:00 UTC,2444534.076389,27.9056,-93.7647,0970,-1.15,-1.64,2.0000,215.0000
1980-10-21 14:10:00 UTC,2444534.090278,27.9056,-93.7647,0970,-0.00,-0.00,0.0000,186.0000
1980-10-21 14:30:00 UTC,2444534.104167,27.9056,-93.7647,0970,0.00,-0.00,0.0000,165.0000
1980-10-21 14:50:00 UTC,2444534.118056,27.9056,-93.7647,0970,0.00,-0.00,0.0000,151.0000
1980-10-21 15:10:00 UTC,2444534.131944,27.9056,-93.7647,0970,0.00,-0.00,0.0000,148.0000
1980-10-21 15:30:00 UTC,2444534.145833,27.9056,-93.7647,0970,0.00,-0.00,0.0000,138.0000
1980-10-21 15:50:00 UTC,2444534.159722,27.9056,-93.7647,0970,0.00,-0.00,0.0000,102.0000
1980-10-21 16:10:00 UTC,2444534.173611,27.9056,-93.7647,0970,0.00,-0.00,0.0000,109.0000
1980-10-21 16:30:00 UTC,2444534.187500,27.9056,-93.7647,0970,0.00,-0.00,0.0000,95.0000
1980-10-21 16:50:00 UTC,2444534.201389,27.9056,-93.7647,0970,0.00,-0.00,0.0000,109.0000
1980-10-21 17:10:00 UTC,2444534.215278,27.9056,-93.7647,0970,0.00,-0.00,0.0000,118.0000
1980-10-21 17:30:00 UTC,2444534.229167,27.9056,-93.7647,0970,0.00,-0.00,0.0000,127.0000
1980-10-21 17:50:00 UTC,2444534.243056,27.9056,-93.7647,0970,0.00,-0.00,0.0000,128.0000
1980-10-21 18:10:00 UTC,2444534.256944,27.9056,-93.7647,0970,2.30,-1.93,3.0000,130.0000
1980-10-21 18:30:00 UTC,2444534.270833,27.9056,-93.7647,0970,1.51,-1.31,2.0000,131.0000
1980-10-21 18:50:00 UTC,2444534.284722,27.9056,-93.7647,0970,2.88,-2.78,4.0000,134.0000
1980-10-21 19:10:00 UTC,2444534.298611,27.9056,-93.7647,0970,2.68,-2.97,4.0000,138.0000
1980-10-21 19:30:00 UTC,2444534.312500,27.9056,-93.7647,0970,2.19,-4.49,5.0000,154.0000
1980-10-21 19:50:00 UTC,2444534.326389,27.9056,-93.7647,0970,0.78,-4.94,5.0000,171.0000
1980-10-21 20:10:00 UTC,2444534.340278,27.9056,-93.7647,0970,1.25,-5.87,6.0000,168.0000
1980-10-21 20:30:00 UTC,2444534.354167,27.9056,-93.7647,0970,1.34,-6.87,7.0000,169.0000
1980-10-21 20:50:00 UTC,2444534.368056,27.9056,-93.7647,0970,0.94,-5.93,6.0000,171.0000
1980-10-21 21:10:00 UTC,2444534.381944,27.9056,-93.7647,0970,1.46,-6.85,7.0000,168.0000
1980-10-21 21:30:00 UTC,2444534.395833,27.9056,-93.7647,0970,1.72,-8.83,9.0000,169.0000
1980-10-21 21:50:00 UTC,2444534.409722,27.9056,-93.7647,0970,0.63,-8.98,9.0000,176.0000
1980-10-21 22:10:00 UTC,2444534.423611,27.9056,-93.7647,0970,-0.31,-8.99,9.0000,182.0000
1980-10-21 22:30:00 UTC,2444534.437500,27.9056,-93.7647,0970,0.14,-8.00,8.0000,179.0000
1980-10-21 22:50:00 UTC,2444534.451389,27.9056,-93.7647,0970,-0.73,-6.96,7.0000,186.0000
1980-10-21 23:10:00 UTC,2444534.465278,27.9056,-93.7647,0970,-0.17,-5.00,5.0000,182.0000
1980-10-21 23:30:00 UTC,2444534.479167,27.9056,-93.7647,0970,-0.17,-5.00,5.0000,182.0000
1980-10-21 23:50:00 UTC,2444534.493056,27.9056,-93.7647,0970,0.17,-5.00,5.0000,178.0000
1980-10-22 00:10:00 UTC,2444534.506944,27.9056,-93.7647,0970,0.73,-5.96,6.0000,173.0000
1980-10-22 00:30:00 UTC,2444534.520833,27.9056,-93.7647,0970,1.21,-4.85,5.0000,166.0000
1980-10-22 00:50:00 UTC,2444534.534722,27.9056,-93.7647,0970,1.46,-4.78,5.0000,163.0000
1980-10-22 01:10:00 UTC,2444534.548611,27.9056,-93.7647,0970,1.46,-4.78,5.0000,163.0000
1980-10-22 01:30:00 UTC,2444534.562500,27.9056,-93.7647,0970,2.44,-5.48,6.0000,156.0000
1980-10-22 01:50:00 UTC,2444534.576389,27.9056,-93.7647,0970,2.42,-4.37,5.0000,151.0000
1980-10-22 02:10:00 UTC,2444534.590278,27.9056,-93.7647,0970,1.43,-3.73,4.0000,159.0000
1980-10-22 02:30:00 UTC,2444534.604167,27.9056,-93.7647,0970,1.88,-3.53,4.0000,152.0000
1980-10-22 02:50:00 UTC,2444534.618056,27.9056,-93.7647,0970,1.22,-2.74,3.0000,156.0000
1980-10-22 03:10:00 UTC,2444534.631944,27.9056,-93.7647,0970,2.12,-3.39,4.0000,148.0000
1980-10-22 03:30:00 UTC,2444534.645833,27.9056,-93.7647,0970,1.75,-3.60,4.0000,154.0000
1980-10-22 03:50:00 UTC,2444534.659722,27.9056,-93.7647,0970,3.38,-7.25,8.0000,155.0000
1980-10-22 04:10:00 UTC,2444534.673611,27.9056,-93.7647,0970,3.80,-8.16,9.0000,155.0000
1980-10-22 04:30:00 UTC,2444534.687500,27.9056,-93.7647,0970,3.23,-8.40,9.0000,159.0000
1980-10-22 04:50:00 UTC,2444534.701389,27.9056,-93.7647,0970,3.09,-5.14,6.0000,149.0000
1980-10-22 05:10:00 UTC,2444534.715278,27.9056,-93.7647,0970,1.26,-1.55,2.0000,141.0000
1980-10-22 05:30:00 UTC,2444534.729167,27.9056,-93.7647,0970,1.15,-1.64,2.0000,145.0000
1980-10-22 05:50:00 UTC,2444534.743056,27.9056,-93.7647,0970,1.72,-2.46,3.0000,145.0000
1980-10-22 06:10:00 UTC,2444534.756944,27.9056,-93.7647,0970,1.41,-2.65,3.0000,152.0000
1980-10-22 06:30:00 UTC,2444534.770833,27.9056,-93.7647,0970,0.33,-0.95,1.0000,161.0000
1980-10-22 06:50:00 UTC,2444534.784722,27.9056,-93.7647,0970,0.00,-0.00,0.0000,171.0000
1980-10-22 07:10:00 UTC,2444534.798611,27.9056,-93.7647,0970,0.28,-1.98,2.0000,172.0000
1980-10-22 07:30:00 UTC,2444534.812500,27.9056,-93.7647,0970,-0.10,-3.00,3.0000,182.0000
1980-10-22 07:50:00 UTC,2444534.826389,27.9056,-93.7647,0970,0.09,-5.00,5.0000,179.0000
1980-10-22 08:10:00 UTC,2444534.840278,27.9056,-93.7647,0970,0.56,-7.98,8.0000,176.0000
1980-10-22 08:30:00 UTC,2444534.854167,27.9056,-93.7647,0970,0.56,-7.98,8.0000,176.0000
1980-10-22 08:50:00 UTC,2444534.868056,27.9056,-93.7647,0970,-0.73,-5.96,6.0000,187.0000
1980-10-22 09:10:00 UTC,2444534.881944,27.9056,-93.7647,0970,-1.04,-5.91,6.0000,190.0000
1980-10-22 09:30:00 UTC,2444534.895833,27.9056,-93.7647,0970,-1.69,-6.79,7.0000,194.0000
1980-10-22 09:50:00 UTC,2444534.909722,27.9056,-93.7647,0970,-1.75,-5.74,6.0000,197.0000
1980-10-22 10:10:00 UTC,2444534.923611,27.9056,-93.7647,0970,-1.45,-5.82,6.0000,194.0000
1980-10-22 10:30:00 UTC,2444534.937500,27.9056,-93.7647,0970,-1.75,-5.74,6.0000,197.0000
1980-10-22 10:50:00 UTC,2444534.951389,27.9056,-93.7647,0970,-1.65,-5.77,6.0000,196.0000
1980-10-22 11:10:00 UTC,2444534.965278,27.9056,-93.7647,0970,-1.93,-6.73,7.0000,196.0000
1980-10-22 11:30:00 UTC,2444534.979167,27.9056,-93.7647,0970,-2.51,-6.54,7.0000,201.0000
1980-10-22 11:50:00 UTC,2444534.993056,27.9056,-93.7647,0970,-2.39,-6.58,7.0000,200.0000
1980-10-22 12:10:00 UTC,2444535.006944,27.9056,-93.7647,0970,-2.82,-5.30,6.0000,208.0000
1980-10-22 12:30:00 UTC,2444535.020833,27.9056,-93.7647,0970,-2.24,-3.32,4.0000,214.0000
1980-10-22 12:50:00 UTC,2444535.034722,27.9056,-93.7647,0970,-2.29,-3.28,4.0000,215.0000
1980-10-22 13:10:00 UTC,2444535.048611,27.9056,-93.7647,0970,-1.97,-2.26,3.0000,221.0000
1980-10-22 13:30:00 UTC,2444535.062500,27.9056,-93.7647,0970,-1.50,-2.60,3.0000,210.0000
1980-10-22 13:50:00 UTC,2444535.076389,27.9056,-93.7647,0970,-1.68,-2.49,3.0000,214.0000
1980-10-22 14:10:00 UTC,2444535.090278,27.9056,-93.7647,0970,-1.31,-1.51,2.0000,221.0000
1980-10-22 14:30:00 UTC,2444535.104167,27.9056,-93.7647,0970,-1.58,-1.23,2.0000,232.0000
1980-10-22 14:50:00 UTC,2444535.118056,27.9056,-93.7647,0970,-0.00,-0.00,0.0000,224.0000
1980-10-22 15:10:00 UTC,2444535.131944,27.9056,-93.7647,0970,-0.00,-0.00,0.0000,231.0000
1980-10-22 15:30:00 UTC,2444535.145833,27.9056,-93.7647,0970,-0.00,-0.00,0.0000,210.0000
1980-10-22 15:50:00 UTC,2444535.159722,27.9056,-93.7647,0970,-0.00,-0.00,0.0000,200.0000
1980-10-22 16:10:00 UTC,2444535.173611,27.9056,-93.7647,0970,0.00,-0.00,0.0000,166.0000
1980-10-22 16:30:00 UTC,2444535.187500,27.9056,-93.7647,0970,0.00,-0.00,0.0000,156.0000
1980-10-22 16:50:00 UTC,2444535.201389,27.9056,-93.7647,0970,0.00,-0.00,0.0000,148.0000
1980-10-22 17:10:00 UTC,2444535.215278,27.9056,-93.7647,0970,0.00,-0.00,0.0000,147.0000
1980-10-22 17:30:00 UTC,2444535.229167,27.9056,-93.7647,0970,0.00,-0.00,0.0000,147.0000
1980-10-22 17:50:00 UTC,2444535.243056,27.9056,-93.7647,0970,0.00,-0.00,0.0000,134.0000
1980-10-22 18:10:00 UTC,2444535.256944,27.9056,-93.7647,0970,2.05,-2.19,3.0000,137.0000
1980-10-22 18:30:00 UTC,2444535.270833,27.9056,-93.7647,0970,2.57,-1.55,3.0000,121.0000
1980-10-22 18:50:00 UTC,2444535.284722,27.9056,-93.7647,0970,1.85,-2.36,3.0000,142.0000
1980-10-22 19:10:00 UTC,2444535.298611,27.9056,-93.7647,0970,0.88,-2.87,3.0000,163.0000
1980-10-22 19:30:00 UTC,2444535.312500,27.9056,-93.7647,0970,1.04,-3.86,4.0000,165.0000
1980-10-22 19:50:00 UTC,2444535.326389,27.9056,-93.7647,0970,1.30,-3.78,4.0000,161.0000
1980-10-22 20:10:00 UTC,2444535.340278,27.9056,-93.7647,0970,1.04,-3.86,4.0000,165.0000
1980-10-22 20:30:00 UTC,2444535.354167,27.9056,-93.7647,0970,0.97,-3.88,4.0000,166.0000
1980-10-22 20:50:00 UTC,2444535.368056,27.9056,-93.7647,0970,0.83,-3.91,4.0000,168.0000
1980-10-22 21:10:00 UTC,2444535.381944,27.9056,-93.7647,0970,1.04,-4.89,5.0000,168.0000
1980-10-22 21:30:00 UTC,2444535.395833,27.9056,-93.7647,0970,1.34,-6.87,7.0000,169.0000
1980-10-22 21:50:00 UTC,2444535.409722,27.9056,-93.7647,0970,1.25,-7.90,8.0000,171.0000
1980-10-22 22:10:00 UTC,2444535.423611,27.9056,-93.7647,0970,1.87,-8.80,9.0000,168.0000
1980-10-22 22:30:00 UTC,2444535.437500,27.9056,-93.7647,0970,1.10,-8.93,9.0000,173.0000
1980-10-22 22:50:00 UTC,2444535.451389,27.9056,-93.7647,0970,0.17,-10.00,10.0000,179.0000
1980-10-22 23:10:00 UTC,2444535.465278,27.9056,-93.7647,0970,-0.58,-10.98,11.0000,183.0000
1980-10-22 23:30:00 UTC,2444535.479167,27.9056,-93.7647,0970,-0.42,-11.99,12.0000,182.0000
1980-10-22 23:50:00 UTC,2444535.493056,27.9056,-93.7647,0970,-1.22,-9.93,10.0000,187.0000
1980-10-23 00:10:00 UTC,2444535.506944,27.9056,-93.7647,0970,-0.31,-8.99,9.0000,182.0000
1980-10-23 00:30:00 UTC,2444535.520833,27.9056,-93.7647,0970,0.00,-8.00,8.0000,180.0000
1980-10-23 00:50:00 UTC,2444535.534722,27.9056,-93.7647,0970,-0.28,-8.00,8.0000,182.0000
1980-10-23 01:10:00 UTC,2444535.548611,27.9056,-93.7647,0970,1.10,-8.93,9.0000,173.0000
1980-10-23 01:30:00 UTC,2444535.562500,27.9056,-93.7647,0970,1.10,-6.91,7.0000,171.0000
1980-10-23 01:50:00 UTC,2444535.576389,27.9056,-93.7647,0970,0.52,-5.98,6.0000,175.0000
1980-10-23 02:10:00 UTC,2444535.590278,27.9056,-93.7647,0970,-0.17,-5.00,5.0000,182.0000
1980-10-23 02:30:00 UTC,2444535.604167,27.9056,-93.7647,0970,0.44,-4.98,5.0000,175.0000
1980-10-23 02:50:00 UTC,2444535.618056,27.9056,-93.7647,0970,0.05,-3.00,3.0000,179.0000
1980-10-23 03:10:00 UTC,2444535.631944,27.9056,-93.7647,0970,0.10,-3.00,3.0000,178.0000
1980-10-23 03:30:00 UTC,2444535.645833,27.9056,-93.7647,0970,-0.07,-2.00,2.0000,182.0000
1980-10-23 03:50:00 UTC,2444535.659722,27.9056,-93.7647,0970,0.00,-0.00,0.0000,178.0000
1980-10-23 04:10:00 UTC,2444535.673611,27.9056,-93.7647,0970,0.00,-0.00,0.0000,172.0000
1980-10-23 04:30:00 UTC,2444535.687500,27.9056,-93.7647,0970,0.00,-0.00,0.0000,171.0000
1980-10-23 04:50:00 UTC,2444535.701389,27.9056,-93.7647,0970,-0.00,-0.00,0.0000,183.0000
1980-10-23 05:10:00 UTC,2444535.715278,27.9056,-93.7647,0970,-1.75,-0.97,2.0000,241.0000
1980-10-23 05:30:00 UTC,2444535.729167,27.9056,-93.7647,0970,-1.98,-0.28,2.0000,262.0000
1980-10-23 05:50:00 UTC,2444535.743056,27.9056,-93.7647,0970,-0.00,-0.00,0.0000,260.0000
1980-10-23 06:10:00 UTC,2444535.756944,27.9056,-93.7647,0970,-0.00,-0.00,0.0000,253.0000
1980-10-23 06:30:00 UTC,2444535.770833,27.9056,-93.7647,0970,-0.00,-0.00,0.0000,244.0000
1980-10-23 06:50:00 UTC,2444535.784722,27.9056,-93.7647,0970,-0.00,-0.00,0.0000,238.0000
1980-10-23 07:10:00 UTC,2444535.798611,27.9056,-93.7647,0970,-0.00,-0.00,0.0000,239.0000
1980-10-23 07:30:00 UTC,2444535.812500,27.9056,-93.7647,0970,-0.00,-0.00,0.0000,230.0000
1980-10-23 07:50:00 UTC,2444535.826389,27.9056,-93.7647,0970,-0.00,-0.00,0.0000,234.0000
1980-10-23 08:10:00 UTC,2444535.840278,27.9056,-93.7647,0970,-0.00,-0.00,0.0000,256.0000
1980-10-23 08:30:00 UTC,2444535.854167,27.9056,-93.7647,0970,-0.00,-0.00,0.0000,255.0000
1980-10-23 08:50:00 UTC,2444535.868056,27.9056,-93.7647,0970,0.00,0.00,0.0000,90.0000
1980-10-23 09:10:00 UTC,2444535.881944,27.9056,-93.7647,0970,-0.00,0.00,0.0000,296.0000
1980-10-23 09:30:00 UTC,2444535.895833,27.9056,-93.7647,0970,-0.00,0.00,0.0000,287.0000
1980-10-23 09:50:00 UTC,2444535.909722,27.9056,-93.7647,0970,-1.68,1.09,2.0000,303.0000
1980-10-23 10:10:00 UTC,2444535.923611,27.9056,-93.7647,0970,-1.00,0.09,1.0000,275.0000
1980-10-23 10:30:00 UTC,2444535.937500,27.9056,-93.7647,0970,-0.00,-0.00,0.0000,268.0000
1980-10-23 10:50:00 UTC,2444535.951389,27.9056,-93.7647,0970,-0.00,-0.00,0.0000,245.0000
1980-10-23 11:10:00 UTC,2444535.965278,27.9056,-93.7647,0970,-0.00,-0.00,0.0000,221.0000
1980-10-23 11:30:00 UTC,2444535.979167,27.9056,-93.7647,0970,-0.00,-0.00,0.0000,227.0000
1980-10-23 11:50:00 UTC,2444535.993056,27.9056,-93.7647,0970,-0.00,-0.00,0.0000,232.0000
1980-10-23 12:10:00 UTC,2444536.006944,27.9056,-93.7647,0970,-0.00,0.00,0.0000,301.0000
1980-10-23 12:30:00 UTC,2444536.020833,27.9056,-93.7647,0970,-1.59,2.54,3.0000,328.0000
1980-10-23 12:50:00 UTC,2444536.034722,27.9056,-93.7647,0970,-0.97,1.75,2.0000,331.0000
1980-10-23 13:10:00 UTC,2444536.048611,27.9056,-93.7647,0970,-0.72,1.87,2.0000,339.0000
1980-10-23 13:30:00 UTC,2444536.062500,27.9056,-93.7647,0970,-0.94,1.77,2.0000,332.0000
1980-10-23 13:50:00 UTC,2444536.076389,27.9056,-93.7647,0970,-0.78,2.90,3.0000,345.0000
1980-10-23 14:10:00 UTC,2444536.090278,27.9056,-93.7647,0970,-0.56,3.96,4.0000,352.0000
1980-10-23 14:30:00 UTC,2444536.104167,27.9056,-93.7647,0970,-0.21,3.99,4.0000,357.0000
1980-10-23 14:50:00 UTC,2444536.118056,27.9056,-93.7647,0970,-0.26,4.99,5.0000,357.0000
1980-10-23 15:10:00 UTC,2444536.131944,27.9056,-93.7647,0970,0.14,4.00,4.0000,2.0000
1980-10-23 15:30:00 UTC,2444536.145833,27.9056,-93.7647,0970,0.17,5.00,5.0000,2.0000
1980-10-23 15:50:00 UTC,2444536.159722,27.9056,-93.7647,0970,0.00,5.00,5.0000,0.0000
1980-10-23 16:10:00 UTC,2444536.173611,27.9056,-93.7647,0970,0.94,5.93,6.0000,9.0000
1980-10-23 16:30:00 UTC,2444536.187500,27.9056,-93.7647,0970,1.45,5.82,6.0000,14.0000
1980-10-23 16:50:00 UTC,2444536.201389,27.9056,-93.7647,0970,2.74,7.52,8.0000,20.0000
1980-10-23 17:10:00 UTC,2444536.215278,27.9056,-93.7647,0970,2.39,6.58,7.0000,20.0000
1980-10-23 17:30:00 UTC,2444536.229167,27.9056,-93.7647,0970,1.69,6.79,7.0000,14.0000
1980-10-23 17:50:00 UTC,2444536.243056,27.9056,-93.7647,0970,1.93,6.73,7.0000,16.0000
1980-10-23 18:10:00 UTC,2444536.256944,27.9056,-93.7647,0970,1.95,5.67,6.0000,19.0000
1980-10-23 18:30:00 UTC,2444536.270833,27.9056,-93.7647,0970,2.51,6.54,7.0000,21.0000
1980-10-23 18:50:00 UTC,2444536.284722,27.9056,-93.7647,0970,2.05,5.64,6.0000,20.0000
1980-10-23 19:10:00 UTC,2444536.298611,27.9056,-93.7647,0970,1.37,3.76,4.0000,20.0000
1980-10-23 19:30:00 UTC,2444536.312500,27.9056,-93.7647,0970,2.94,4.05,5.0000,36.0000
1980-10-23 19:50:00 UTC,2444536.326389,27.9056,-93.7647,0970,2.18,3.35,4.0000,33.0000
1980-10-23 20:10:00 UTC,2444536.340278,27.9056,-93.7647,0970,2.35,4.41,5.0000,28.0000
1980-10-23 20:30:00 UTC,2444536.354167,27.9056,-93.7647,0970,2.18,3.35,4.0000,33.0000
1980-10-23 20:50:00 UTC,2444536.368056,27.9056,-93.7647,0970,1.55,2.57,3.0000,31.0000
1980-10-23 21:10:00 UTC,2444536.381944,27.9056,-93.7647,0970,1.09,1.68,2.0000,33.0000
1980-10-23 21:30:00 UTC,2444536.395833,27.9056,-93.7647,0970,0.65,1.89,2.0000,19.0000
1980-10-23 21:50:00 UTC,2444536.409722,27.9056,-93.7647,0970,0.00,0.00,0.0000,20.0000
1980-10-23 22:10:00 UTC,2444536.423611,27.9056,-93.7647,0970,-0.00,0.00,0.0000,289.0000
1980-10-23 22:30:00 UTC,2444536.437500,27.9056,-93.7647,0970,0.00,-0.00,0.0000,123.0000
1980-10-23 22:50:00 UTC,2444536.451389,27.9056,-93.7647,0970,0.00,-0.00,0.0000,128.0000
1980-10-23 23:10:00 UTC,2444536.465278,27.9056,-93.7647,0970,0.00,-0.00,0.0000,130.0000
1980-10-23 23:30:00 UTC,2444536.479167,27.9056,-93.7647,0970,0.00,-0.00,0.0000,123.0000
1980-10-23 23:50:00 UTC,2444536.493056,27.9056,-93.7647,0970,0.00,-0.00,0.0000,128.0000
1980-10-24 00:10:00 UTC,2444536.506944,27.9056,-93.7647,0970,0.00,-0.00,0.0000,133.0000
1980-10-24 00:30:00 UTC,2444536.520833,27.9056,-93.7647,0970,0.53,-0.85,1.0000,148.0000
1980-10-24 00:50:00 UTC,2444536.534722,27.9056,-93.7647,0970,0.00,-0.00,0.0000,144.0000
1980-10-24 01:10:00 UTC,2444536.548611,27.9056,-93.7647,0970,0.00,-0.00,0.0000,138.0000
1980-10-24 01:30:00 UTC,2444536.562500,27.9056,-93.7647,0970,0.00,-0.00,0.0000,137.0000
1980-10-24 01:50:00 UTC,2444536.576389,27.9056,-93.7647,0970,0.00,-0.00,0.0000,114.0000
1980-10-24 02:10:00 UTC,2444536.590278,27.9056,-93.7647,0970,0.00,0.00,0.0000,58.0000
1980-10-24 02:30:00 UTC,2444536.604167,27.9056,-93.7647,0970,0.60,0.80,1.0000,37.0000
1980-10-24 02:50:00 UTC,2444536.618056,27.9056,-93.7647,0970,1.18,1.62,2.0000,36.0000
1980-10-24 03:10:00 UTC,2444536.631944,27.9056,-93.7647,0970,0.56,0.83,1.0000,34.0000
1980-10-24 03:30:00 UTC,2444536.645833,27.9056,-93.7647,0970,1.17,2.76,3.0000,23.0000
1980-10-24 03:50:00 UTC,2444536.659722,27.9056,-93.7647,0970,1.03,2.82,3.0000,20.0000
1980-10-24 04:10:00 UTC,2444536.673611,27.9056,-93.7647,0970,1.43,3.73,4.0000,21.0000
1980-10-24 04:30:00 UTC,2444536.687500,27.9056,-93.7647,0970,1.38,4.81,5.0000,16.0000
1980-10-24 04:50:00 UTC,2444536.701389,27.9056,-93.7647,0970,1.35,5.85,6.0000,13.0000
1980-10-24 05:10:00 UTC,2444536.715278,27.9056,-93.7647,0970,0.52,9.99,10.0000,3.0000
1980-10-24 05:30:00 UTC,2444536.729167,27.9056,-93.7647,0970,-0.14,8.00,8.0000,359.0000
1980-10-24 05:50:00 UTC,2444536.743056,27.9056,-93.7647,0970,0.35,9.99,10.0000,2.0000
1980-10-24 06:10:00 UTC,2444536.756944,27.9056,-93.7647,0970,0.47,8.99,9.0000,3.0000
1980-10-24 06:30:00 UTC,2444536.770833,27.9056,-93.7647,0970,0.61,6.97,7.0000,5.0000
1980-10-24 06:50:00 UTC,2444536.784722,27.9056,-93.7647,0970,-0.37,6.99,7.0000,357.0000
1980-10-24 07:10:00 UTC,2444536.798611,27.9056,-93.7647,0970,-0.52,5.98,6.0000,355.0000
1980-10-24 07:30:00 UTC,2444536.812500,27.9056,-93.7647,0970,-0.31,5.99,6.0000,357.0000
1980-10-24 07:50:00 UTC,2444536.826389,27.9056,-93.7647,0970,0.31,5.99,6.0000,3.0000
1980-10-24 08:10:00 UTC,2444536.840278,27.9056,-93.7647,0970,0.35,3.98,4.0000,5.0000
1980-10-24 08:30:00 UTC,2444536.854167,27.9056,-93.7647,0970,0.26,2.99,3.0000,5.0000
1980-10-24 08:50:00 UTC,2444536.868056,27.9056,-93.7647,0970,-0.05,3.00,3.0000,359.0000
1980-10-24 09:10:00 UTC,2444536.881944,27.9056,-93.7647,0970,0.42,3.98,4.0000,6.0000
1980-10-24 09:30:00 UTC,2444536.895833,27.9056,-93.7647,0970,0.31,1.98,2.0000,9.0000
1980-10-24 09:50:00 UTC,2444536.909722,27.9056,-93.7647,0970,0.65,1.89,2.0000,19.0000
1980-10-24 10:10:00 UTC,2444536.923611,27.9056,-93.7647,0970,0.55,1.92,2.0000,16.0000
1980-10-24 10:30:00 UTC,2444536.937500,27.9056,-93.7647,0970,0.00,0.00,0.0000,7.0000
1980-10-24 10:50:00 UTC,2444536.951389,27.9056,-93.7647,0970,0.33,0.95,1.0000,19.0000
1980-10-24 11:10:00 UTC,2444536.965278,27.9056,-93.7647,0970,0.00,0.00,0.0000,38.0000
1980-10-24 11:30:00 UTC,2444536.979167,27.9056,-93.7647,0970,0.00,0.00,0.0000,27.0000
1980-10-24 11:50:00 UTC,2444536.993056,27.9056,-93.7647,0970,0.00,0.00,0.0000,41.0000
1980-10-24 12:10:00 UTC,2444537.006944,27.9056,-93.7647,0970,-0.00,0.00,0.0000,345.0000
1980-10-24 12:30:00 UTC,2444537.020833,27.9056,-93.7647,0970,-0.62,0.79,1.0000,322.0000
1980-10-24 12:50:00 UTC,2444537.034722,27.9056,-93.7647,0970,-0.79,0.62,1.0000,308.0000
1980-10-24 13:10:00 UTC,2444537.048611,27.9056,-93.7647,0970,-0.00,0.00,0.0000,332.0000
1980-10-24 13:30:00 UTC,2444537.062500,27.9056,-93.7647,0970,-0.00,0.00,0.0000,339.0000
1980-10-24 13:50:00 UTC,2444537.076389,27.9056,-93.7647,0970,-0.59,0.81,1.0000,324.0000
1980-10-24 14:10:00 UTC,2444537.090278,27.9056,-93.7647,0970,-0.67,0.74,1.0000,318.0000
1980-10-24 14:30:00 UTC,2444537.104167,27.9056,-93.7647,0970,-0.00,0.00,0.0000,325.0000
1980-10-24 14:50:00 UTC,2444537.118056,27.9056,-93.7647,0970,-1.60,1.20,2.0000,307.0000
1980-10-24 15:10:00 UTC,2444537.131944,27.9056,-93.7647,0970,-1.51,1.31,2.0000,311.0000